Location: Leipzig
(51.3392°N, 12.3528°E)
Time: 11:43:58
(UTC+01:00)

ISS - Pass Details

Date: 10 February 2018
Orbit: 403 x 407 km, 51.6° (Epoch: 22 February)

Event Time Altitude Azimuth Distance (km) Brightness Sun altitude
Rises 18:39:50 0° 284° (WNW) 2,322 1.5 -13.4°
Reaches altitude 10° 18:42:06 10° 271° (W) 1,460 0.4 -13.7°
Maximum altitude 18:44:54 27° 212° (SSW) 821 -1.9 -14.1°
Drops below altitude 10° 18:47:42 10° 153° (SSE) 1,455 -1.2 -14.6°
Enters shadow 18:47:58 - 150° (SSE) 1,546 -1.1 -14.6°
